This is the latest recevied weather packets stored in our database for station/object KJ7IVE-13. If no packets are shown the sender has not sent any weather packets the latest 10 day(s).
| Time | Temp. | Humidity | Pressure | Rain* | Wind** | Luminosity | Snow |
|---|---|---|---|---|---|---|---|
| 1777432980 | 10.56° C | 10% | 1021.5 hPa | 0 mm | - | 0 W/m² | - |
| 1777432371 | 10.56° C | 10% | 1021.4 hPa | 0 mm | - | 0 W/m² | - |
| 1777432070 | 11.11° C | 10% | 1021.2 hPa | 0 mm | - | 0 W/m² | - |
| 1777431766 | 11.11° C | 10% | 1021.1 hPa | 0 mm | - | 0 W/m² | - |
| 1777431462 | 11.67° C | 10% | 1021 hPa | 0 mm | - | 0 W/m² | - |
| 1777429946 | 11.67° C | 10% | 1020.7 hPa | 0 mm | - | 0 W/m² | - |
| 1777429035 | 12.22° C | 10% | 1020.8 hPa | 0 mm | - | 3 W/m² | - |
| 1777428732 | 12.22° C | 10% | 1020.7 hPa | 0 mm | - | 6 W/m² | - |
| 1777427819 | 12.78° C | 10% | 1020.9 hPa | 0 mm | - | 16 W/m² | - |
| 1777427517 | 12.78° C | 10% | 1020.8 hPa | 0 mm | - | 20 W/m² | - |
| 1777427217 | 13.33° C | 10% | 1020.6 hPa | 0 mm | - | 24 W/m² | - |
| 1777425394 | 13.33° C | 10% | 1021 hPa | 0 mm | - | 61 W/m² | - |
| 1777425091 | 14.44° C | 10% | 1020.8 hPa | 0 mm | - | 72 W/m² | - |
| 1777422658 | 13.33° C | 10% | 1021.2 hPa | 0 mm | - | 161 W/m² | - |
| 1777415062 | 12.78° C | 10% | 1021.5 hPa | 0 mm | - | 490 W/m² | - |
| 1777414458 | 12.78° C | 10% | 1021.7 hPa | 0 mm | - | 523 W/m² | - |
| 1777413853 | 12.78° C | 10% | 1021.6 hPa | 0 mm | - | 550 W/m² | - |
| 1777412336 | 13.33° C | 10% | 1021.7 hPa | 0 mm | - | 615 W/m² | - |
| 1777411426 | 12.78° C | 10% | 1021.7 hPa | 0 mm | - | 635 W/m² | - |
| 1777409915 | 12.22° C | 10% | 1022 hPa | 0 mm | - | 650 W/m² | - |
| 1777408095 | 12.22° C | 10% | 1022.2 hPa | 0 mm | - | 636 W/m² | - |
| 1777407791 | 12.78° C | 10% | 1021.9 hPa | 0 mm | - | 639 W/m² | - |
| 1777405967 | 12.22° C | 10% | 1021.5 hPa | 0 mm | - | 622 W/m² | - |
| 1777405361 | 12.22° C | 10% | 1022 hPa | 0 mm | - | 643 W/m² | - |
| 1777404751 | 11.67° C | 10% | 1022.2 hPa | 0 mm | - | 668 W/m² | - |
* Rain latest hour (hover to see other rain measurements)
** Current wind speed in m/s (hover to see current wind gust speed)